Location: Burla
(50.9568°N, 10.4983°E)
Time: 11:34:12
(UTC+00:00)

CZ-4C R/B - Pass Details

Date: 18 January 2026
Orbit: 482 x 1496 km, 63.4° (Epoch: 16 February)

Event Time Altitude Azimuth Distance (km) Brightness Sun altitude
Exits shadow 04:15:03 25° 347° (NNW) 1,820 3.8 -27.3°
Maximum altitude 04:16:54 29° 15° (NNE) 1,762 3.9 -27.0°
Drops below altitude 10° 04:23:10 10° 73° (ENE) 3,119 6.0 -26.0°
Sets 04:26:44 0° 84° (E) 4,249 7.2 -25.4°
